Weather History for Worland, WY

Change the Weather History Date:

Tuesday, May 28, 2013

  Actual Average Record
Temperature  
Mean Temperature 58 °F 59 °F  
Max Temperature 74 °F 74 °F 94 °F (2014)
Min Temperature 42 °F 45 °F 32 °F (1973)
Degree Days  
Heating Degree Days 7 7  
Month to date heating degree days 209 290  
Since 1 July heating degree days 7388 7757  
Cooling Degree Days 0 1  
Month to date cooling degree days 17 2  
Year to date cooling degree days 17 3  
Growing Degree Days 8 (Base 50)    
Moisture  
Dew Point 38 °F    
Average Humidity 48    
Maximum Humidity 72    
Minimum Humidity 23    
Precipitation  
Precipitation T in 0.05 in 0.30 in (1964)
Month to date precipitation 0.82 1.27  
Year to date precipitation 2.39 3.01  
Sea Level Pressure  
Sea Level Pressure 29.63 in    
Wind  
Wind Speed 6 mph (SSW)    
Max Wind Speed 35 mph    
Max Gust Speed 41 mph    
Visibility 10 miles    
Events      
T = Trace of Precipitation, MM = Missing Value Source: NWS Daily Summary

Daily Weather History Graph

Daily Weather History Graph

Search for Another Location

Airport:

Trip Planner

Search our weather history database for the weather conditions in past years. The results will help you decide how hot, cold, wet, or windy it might be!

Date:

Astronomy

May. 28, 2013 Rise Set
Actual Time 5:34 AM MDT 8:44 PM MDT
Civil Twilight 4:59 AM MDT 9:19 PM MDT
Nautical Twilight 4:14 AM MDT 10:04 PM MDT
Astronomical Twilight 3:19 AM MDT 10:59 PM MDT
Moon No Moon Rise 9:29 AM MDT (5/28)
Length of Visible Light 16h 20m
Length of Day
15h 10m
Waning Gibbous, 82% of the Moon is Illuminated
May 28
Waning Gibbous
May 31
Last Quarter
Jun 8
New
Jun 16
First Quarter
Jun 23
Full

Hourly Weather History & Observations

Time (MDT) Temp. Windchill Dew Point Humidity Pressure Visibility Wind Dir Wind Speed Gust Speed Precip Events Conditions
12:53 AM 46.0 °F - 30.9 °F 56% 29.72 in 10.0 mi Calm Calm - N/A   Clear
1:53 AM 44.1 °F 40.1 °F 34.0 °F 68% 29.72 in 10.0 mi South 6.9 mph - N/A   Clear
2:53 AM 48.9 °F - 34.0 °F 56% 29.70 in 10.0 mi South 8.1 mph - N/A   Mostly Cloudy
3:53 AM 48.0 °F - 34.0 °F 58% 29.69 in 10.0 mi South 5.8 mph - N/A   Mostly Cloudy
4:53 AM 45.0 °F 42.6 °F 33.1 °F 63% 29.68 in 10.0 mi SE 4.6 mph - N/A   Partly Cloudy
5:53 AM 46.0 °F - 34.0 °F 63% 29.67 in 10.0 mi Calm Calm - N/A   Partly Cloudy
6:53 AM 52.0 °F - 36.0 °F 54% 29.65 in 10.0 mi Calm Calm - N/A   Clear
7:53 AM 57.9 °F - 35.1 °F 42% 29.64 in 10.0 mi South 3.5 mph - N/A   Clear
8:53 AM 60.1 °F - 34.0 °F 38% 29.65 in 10.0 mi Calm Calm - N/A   Clear
9:53 AM 63.0 °F - 39.0 °F 41% 29.63 in 10.0 mi NNE 6.9 mph - N/A   Clear
10:53 AM 66.9 °F - 36.0 °F 32% 29.61 in 10.0 mi SW 10.4 mph - N/A   Clear
11:53 AM 70.0 °F - 33.1 °F 26% 29.59 in 10.0 mi SW 6.9 mph - N/A   Clear
12:53 PM 69.1 °F - 32.0 °F 25% 29.59 in 10.0 mi South 4.6 mph - N/A   Scattered Clouds
1:53 PM 73.0 °F - 35.1 °F 25% 29.56 in 10.0 mi NE 9.2 mph - 0.00 in   Scattered Clouds
2:53 PM 72.0 °F - 33.1 °F 24% 29.54 in 10.0 mi Calm Calm - N/A   Clear
3:53 PM 73.0 °F - 33.1 °F 23% 29.53 in 10.0 mi North 3.5 mph - N/A   Clear
4:53 PM 68.0 °F - 37.9 °F 33% 29.59 in 10.0 mi SSW 28.8 mph 35.7 mph N/A   Overcast
5:04 PM 64.4 °F - 42.8 °F 45% 29.68 in 10.0 mi WSW 27.6 mph 41.4 mph N/A   Overcast
5:18 PM 62.6 °F - 44.6 °F 52% 29.69 in 10.0 mi West 19.6 mph 28.8 mph 0.00 in   Overcast
5:53 PM 63.0 °F - 45.0 °F 52% 29.62 in 10.0 mi WNW 9.2 mph - 0.00 in   Mostly Cloudy
6:53 PM 63.0 °F - 45.0 °F 52% 29.60 in 10.0 mi Variable 3.5 mph - N/A   Partly Cloudy
7:53 PM 63.0 °F - 43.0 °F 48% 29.56 in 10.0 mi NE 3.5 mph - N/A   Clear
8:53 PM 57.0 °F - 45.0 °F 64% 29.60 in 10.0 mi SSE 4.6 mph - N/A   Clear
9:53 PM 57.0 °F - 46.0 °F 67% 29.60 in 10.0 mi North 4.6 mph - N/A   Partly Cloudy
10:53 PM 55.9 °F - 46.9 °F 72% 29.60 in 10.0 mi North 3.5 mph - N/A   Mostly Cloudy
11:53 PM 55.0 °F - 45.0 °F 69% 29.60 in 10.0 mi NNE 5.8 mph - N/A   Mostly Cloudy